Flag for Germany Weather past 2 weeks in Augsburg, Bavaria, Germany

Now
50 °F

Light rain. Passing clouds.


Feels Like: 43 °F
Forecast: 40 / 48 °F
Wind: 25 mph from Southwest

Location: Augsburg Airport

Current Time: Mar 29, 2015 at 11:17:41 PM

Latest Report: Mar 29, 2015 at 8:50 PM


Visibility: N/A

Pressure: 29.62 "Hg

Humidity: 71%

Dew point: 41 °F

Location of AugsburgLocation

Historic Weather in Augsburg — Graph

°F

Augsburg temperature yesterday

Maximum temperature yesterday: 54 °F (at 2:50 PM)
Minimum temperature yesterday: 34 °F (at 6:50 AM)
Average temperature yesterday: 48 °F

Past Weeks' High & Low Weather Summary

 TemperatureHumidityPressure
High63 °F (Mar 17, 1:50 PM)100% (Mar 18, 6:20 AM)30.24 "Hg (Mar 18, 6:20 AM)
Low28 °F (Mar 19, 6:20 AM)28% (Mar 20, 3:50 PM)29.56 "Hg (Mar 25, 1:20 PM)
Average47 °F62%30.02 "Hg
* Reported Mar 14 7:20 PM — Mar 29 8:50 PM, Augsburg, Weather by CustomWeather, © 2015

Note: Actual official high and low records may vary slightly from our data, if they occured in-between our weather recording intervals... More about our weather records

Advertising

Augsburg weather history for previous 24 hours

 ConditionsComfort  
Time TempWeatherWind HumidityBarometerVisibility
8:50 PM
Sun, Mar 29
50 °FLight rain. Passing clouds.25 mph71%29.62 "HgN/A
8:20 PM50 °FMostly cloudy.24 mph71%29.62 "HgN/A
7:50 PM50 °FMostly cloudy.24 mph71%29.65 "HgN/A
7:20 PM50 °FMostly cloudy.25 mph67%29.65 "HgN/A
6:50 PM50 °FLight rain. Mostly cloudy.24 mph71%29.68 "HgN/A
6:20 PM48 °FLight rain. Mostly cloudy.23 mph76%29.68 "HgN/A
5:50 PM48 °FLight rain. Mostly cloudy.20 mph76%29.71 "HgN/A
5:20 PM50 °FLight rain. More clouds than sun.20 mph76%29.71 "HgN/A
4:50 PM48 °FRain. More clouds than sun.21 mph82%29.71 "HgN/A
4:20 PM50 °FLight rain. More clouds than sun.20 mph76%29.74 "HgN/A
3:50 PM50 °FRain. More clouds than sun.20 mph76%29.74 "HgN/A
3:20 PM50 °FRain. Mostly cloudy.21 mph76%29.74 "HgN/A
2:50 PM52 °FLight rain. Mostly cloudy.25 mph72%29.77 "HgN/A
2:20 PM52 °FLight rain. Mostly cloudy.20 mph72%29.77 "HgN/A
1:50 PM52 °FLight rain. Partly sunny.21 mph67%29.77 "HgN/A
1:20 PM54 °FRain. Partly sunny.24 mph63%29.77 "HgN/A
12:50 PM54 °FPartly sunny.21 mph58%29.80 "HgN/A
12:20 PM52 °FPartly sunny.18 mph62%29.80 "HgN/A
11:50 AM54 °FBroken clouds.17 mph58%29.83 "HgN/A
11:20 AM52 °FScattered clouds.18 mph67%29.83 "HgN/A
10:50 AM52 °FScattered clouds.21 mph67%29.83 "HgN/A
10:20 AM52 °FDrizzle. Broken clouds.21 mph67%29.86 "HgN/A
9:50 AM50 °FBroken clouds.18 mph71%29.89 "HgN/A
9:20 AM50 °FPartly sunny.17 mph71%29.89 "HgN/A
8:50 AM50 °FPartly sunny.22 mph71%29.89 "HgN/A
Weather by CustomWeather, © 2015

See weather overviewHow to use our weather pages